Disney Magic — C6PT7 — position and weather

sailwx.info

Track history (hours):
 
Tides and Currents Weather Stations Pressure Air Temp Water Temp Dewpoint Dewpoint Depression Visibility Wind Speed Wind Dir Waves Ship Positions

Disney Magic

Last reported at 2018-May-26 17:31 UTC. Time now 2018-May-27 01:16 UTC.
Position N 41°15' E 002°34'.

Type: Passenger vessel. MMSI: 308516000.

Date/timePositionNaut miles runAvg speedWind from/ knotsBaromVisibWave heightAir tempDewpointWater temp
2018-May-26 17:31N 41°15' E 002°34'216.1
2018-May-26 17:23N 41°15' E 002°32'615.7
2018-May-26 17:01N 41°15' E 002°24'815.9
2018-May-26 16:30N 41°15' E 002°13'611.0
2018-May-26 16:00N 41°20' E 002°10'1 2.2
2018-May-26 15:30N 41°21' E 002°10'0 0.4
2018-May-26 14:59N 41°21' E 002°11'0 0.0
2018-May-26 14:29N 41°21' E 002°11'0 0.0
2018-May-26 13:59N 41°21' E 002°11'0 0.0
2018-May-26 13:29N 41°21' E 002°11'0 0.0
2018-May-26 12:59N 41°21' E 002°11'0 0.0
2018-May-26 12:29N 41°21' E 002°11'0 0.0
2018-May-26 11:59N 41°21' E 002°11'0 0.0
2018-May-26 11:29N 41°21' E 002°11'0 0.0
2018-May-26 10:59N 41°21' E 002°11'0 0.0
2018-May-26 10:29N 41°21' E 002°11'0 0.0
2018-May-26 09:59N 41°21' E 002°11'0 0.0
2018-May-26 09:29N 41°21' E 002°11'0 0.0
2018-May-26 08:59N 41°21' E 002°11'0 0.0
2018-May-26 08:29N 41°21' E 002°11'0 0.0
2018-May-26 07:59N 41°21' E 002°11'0 0.0
2018-May-26 07:26N 41°21' E 002°11'0 0.0
2018-May-26 06:59N 41°21' E 002°11'0 0.0
2018-May-26 06:29N 41°21' E 002°11'0 0.0
2018-May-26 05:29N 41°21' E 002°11'0 0.0
2018-May-26 04:59N 41°21' E 002°11'0 0.0
2018-May-26 04:29N 41°21' E 002°11'0 0.0
2018-May-26 03:59N 41°21' E 002°11'0 0.0
2018-May-26 03:29N 41°21' E 002°11'0 0.0
2018-May-26 03:01N 41°21' E 002°11'3 5.2
2018-May-26 02:30N 41°19' E 002°10'3 5.3
2018-May-26 02:01N 41°16' E 002°11'815.1
2018-May-26 01:31N 41°09' E 002°10'916.9
2018-May-26 01:00N 41°00' E 002°09'11917.4
2018-May-25 18:07N 39°02' E 001°49'216.4
2018-May-25 17:58N 38°60' E 001°48'817.0
2018-May-25 17:30N 38°57' E 001°38'916.2
2018-May-25 16:59N 38°53' E 001°28'1 1.9
2018-May-25 16:28N 38°54' E 001°27'0 0.0
2018-May-25 15:55N 38°54' E 001°27'0 0.0
2018-May-25 15:28N 38°54' E 001°27'0 0.0
2018-May-25 14:58N 38°54' E 001°27'0 0.0
2018-May-25 14:25N 38°54' E 001°27'0 0.0
2018-May-25 13:58N 38°54' E 001°27'0 0.0
2018-May-25 13:28N 38°54' E 001°27'0 0.0
2018-May-25 12:58N 38°54' E 001°27'0 0.0
2018-May-25 12:25N 38°54' E 001°27'0 0.0
2018-May-25 11:58N 38°54' E 001°27'0 0.0
2018-May-25 11:28N 38°54' E 001°27'0 0.0
2018-May-25 10:58N 38°54' E 001°27'0 0.0
2018-May-25 10:28N 38°54' E 001°27'0 0.0
2018-May-25 09:58N 38°54' E 001°27'0 0.0
2018-May-25 09:28N 38°54' E 001°27'0 0.2
2018-May-25 08:59N 38°54' E 001°27'2 5.1
2018-May-25 08:30N 38°53' E 001°30'11018.0
2018-May-25 02:23N 37°34' W 000°07'821.0
2018-May-25 02:00N 37°29' W 000°15'1020.8
2018-May-25 01:30N 37°23' W 000°26'1120.5
2018-May-25 00:58N 37°16' W 000°37'920.2
2018-May-25 00:30N 37°11' W 000°47'13517.9
2018-May-24 17:00N 36°24' W 003°24'84 4.7 270 / 181013.210.8 21.017.819.0
2018-May-23 22:59N 36°05' W 005°05'919.1
2018-May-23 22:31N 36°02' W 005°16'1019.2
2018-May-23 22:01N 35°58' W 005°27'1018.3
2018-May-23 21:26N 35°55' W 005°39'126 6.6
2018-May-23 02:11N 36°33' W 008°09'620.7
2018-May-23 01:54N 36°33' W 008°16'7915.6
2018-May-22 20:48N 37°25' W 009°31'720.5
2018-May-22 20:28N 37°32' W 009°30'920.2
2018-May-22 20:00N 37°41' W 009°30'1020.3
2018-May-22 19:30N 37°51' W 009°29'1020.2
2018-May-22 19:00N 38°01' W 009°28'1020.4
2018-May-22 18:30N 38°11' W 009°27'1020.5
2018-May-22 18:00N 38°22' W 009°26'1020.2
2018-May-22 17:30N 38°32' W 009°25'918.5
2018-May-22 17:00N 38°40' W 009°19'612.7
2018-May-22 16:30N 38°41' W 009°11'3 6.1
2018-May-22 16:00N 38°43' W 009°08'0 0.0
2018-May-22 15:30N 38°43' W 009°08'0 0.0
2018-May-22 15:00N 38°43' W 009°08'0 0.0
2018-May-22 14:30N 38°43' W 009°08'0 0.0
2018-May-22 14:00N 38°43' W 009°08'0 0.0
2018-May-22 13:30N 38°43' W 009°08'0 0.0
2018-May-22 13:00N 38°43' W 009°08'0 0.0
2018-May-22 12:30N 38°43' W 009°08'0 0.0
2018-May-22 12:00N 38°43' W 009°08'0 0.0
2018-May-22 11:30N 38°43' W 009°08'0 0.0
2018-May-22 10:54N 38°43' W 009°08'0 0.0
2018-May-22 10:30N 38°43' W 009°08'0 0.0
2018-May-22 10:00N 38°43' W 009°08'0 0.0
2018-May-22 09:30N 38°43' W 009°08'0 0.0
2018-May-22 09:00N 38°43' W 009°08'0 0.0
2018-May-22 08:30N 38°43' W 009°08'0 0.0
2018-May-22 08:00N 38°43' W 009°08'0 0.4
2018-May-22 07:30N 38°42' W 009°08'4 8.3
2018-May-22 06:59N 38°41' W 009°13'4 9.3
2018-May-22 06:30N 38°40' W 009°19'611.8
2018-May-22 06:00N 38°36' W 009°24'917.4
2018-May-22 05:30N 38°34' W 009°35'917.4
2018-May-22 05:01N 38°32' W 009°46'917.5
2018-May-22 04:30N 38°30' W 009°57'917.5
2018-May-22 04:00N 38°28' W 010°07'2617.6
2018-May-22 02:32N 38°25' W 010°40'017.5
2018-May-22 02:30N 38°25' W 010°41'917.5
2018-May-22 02:01N 38°25' W 010°52'1017.6
2018-May-22 01:26N 38°24' W 011°05'1 2.1
2018-May-22 01:00N 38°24' W 011°06'15619.5 180 / 201012.4 2.2 16.016.017.0
2018-May-21 17:00N 38°12' W 014°24'42921.2 240 / 141011.0 2.2 19.019.016.0
2018-May-20 20:48N 37°45' W 023°27'620.9
2018-May-20 20:30N 37°45' W 023°35'1121.0
2018-May-20 20:00N 37°44' W 023°48'1121.1
2018-May-20 19:30N 37°43' W 024°01'1020.8
2018-May-20 19:00N 37°43' W 024°14'1121.1
2018-May-20 18:31N 37°42' W 024°28'1121.4
2018-May-20 18:00N 37°41' W 024°41'1121.2
2018-May-20 17:30N 37°40' W 024°55'1020.8
2018-May-20 17:01N 37°40' W 025°08'1121.2
2018-May-20 16:30N 37°40' W 025°21'1020.7
2018-May-20 16:00N 37°41' W 025°34'510.6
2018-May-20 15:30N 37°44' W 025°40'0 0.0
2018-May-20 14:58N 37°44' W 025°40'0 0.0
2018-May-20 14:28N 37°44' W 025°40'0 0.0
2018-May-20 13:58N 37°44' W 025°40'0 0.0
2018-May-20 13:28N 37°44' W 025°40'0 0.0
2018-May-20 12:58N 37°44' W 025°40'0 0.0
2018-May-20 12:28N 37°44' W 025°40'0 0.0
2018-May-20 11:58N 37°44' W 025°40'0 0.0
2018-May-20 11:28N 37°44' W 025°40'0 0.0
2018-May-20 10:58N 37°44' W 025°40'0 0.0
2018-May-20 10:28N 37°44' W 025°40'0 0.0
2018-May-20 09:58N 37°44' W 025°40'0 0.0
2018-May-20 09:30N 37°44' W 025°40'0 0.0
2018-May-20 09:00N 37°44' W 025°40'0 0.0
2018-May-20 08:30N 37°44' W 025°40'0 0.0
2018-May-20 08:00N 37°44' W 025°40'0 0.0
2018-May-20 07:30N 37°44' W 025°40'0 0.0
2018-May-20 07:00N 37°44' W 025°40'0 1.0
2018-May-20 06:30N 37°44' W 025°39'2 4.7
2018-May-20 06:00N 37°42' W 025°41'5 9.7
2018-May-20 05:31N 37°41' W 025°47'5 9.2
2018-May-20 05:00N 37°40' W 025°53'5 9.2
2018-May-20 04:30N 37°39' W 025°58'5 9.8
2018-May-20 04:00N 37°37' W 026°04'5 9.9
2018-May-20 03:30N 37°36' W 026°10'5 9.9
2018-May-20 03:00N 37°35' W 026°16'611.2
2018-May-20 02:30N 37°33' W 026°23'916.9
2018-May-20 02:00N 37°31' W 026°34'816.7
2018-May-20 01:30N 37°29' W 026°44'917.4
2018-May-20 01:00N 37°27' W 026°54'917.3
2018-May-20 00:30N 37°24' W 027°05'917.4
2018-May-20 00:00N 37°22' W 027°15'917.6
2018-May-19 23:29N 37°20' W 027°27'817.4
2018-May-19 23:00N 37°17' W 027°36'917.3
2018-May-19 22:31N 37°15' W 027°47'816.8
2018-May-19 22:00N 37°13' W 027°57'816.7
2018-May-19 21:30N 37°11' W 028°07'816.6
2018-May-19 21:01N 37°09' W 028°17'816.9
2018-May-19 20:30N 37°06' W 028°28'816.9
2018-May-19 20:00N 37°04' W 028°38'917.2
2018-May-19 19:31N 37°02' W 028°48'917.2
2018-May-19 19:00N 36°60' W 028°59'917.1
2018-May-19 18:30N 36°57' W 029°09'18816.3
2018-May-19 07:00N 36°06' W 032°54'47418.2 250 / 121027.010.8 19.816.821.0
2018-May-18 05:00N 34°00' W 042°12'36418.2 180 / 101029.327.0 23.018.224.0
2018-May-17 09:00N 32°24' W 049°12'   360 / 61029.010.8 23.019.924.7
Track history (hours):
 
Tides and Currents Weather Stations Pressure Air Temp Water Temp Dewpoint Dewpoint Depression Visibility Wind Speed Wind Dir Waves Ship Positions

Disney Magic

Last reported at 2018-May-26 17:31 UTC. Time now 2018-May-27 01:16 UTC.
Position N 41°15' E 002°34'.

Type: Passenger vessel. MMSI: 308516000.

Date/timePositionNaut miles runAvg speedWind from/ knotsBaromVisibWave heightAir tempDewpointWater temp
2018-May-26 17:31N 41°15' E 002°34'216.1
2018-May-26 17:23N 41°15' E 002°32'615.7
2018-May-26 17:01N 41°15' E 002°24'815.9
2018-May-26 16:30N 41°15' E 002°13'611.0
2018-May-26 16:00N 41°20' E 002°10'1 2.2
2018-May-26 15:30N 41°21' E 002°10'0 0.4
2018-May-26 14:59N 41°21' E 002°11'0 0.0
2018-May-26 14:29N 41°21' E 002°11'0 0.0
2018-May-26 13:59N 41°21' E 002°11'0 0.0
2018-May-26 13:29N 41°21' E 002°11'0 0.0
2018-May-26 12:59N 41°21' E 002°11'0 0.0
2018-May-26 12:29N 41°21' E 002°11'0 0.0
2018-May-26 11:59N 41°21' E 002°11'0 0.0
2018-May-26 11:29N 41°21' E 002°11'0 0.0
2018-May-26 10:59N 41°21' E 002°11'0 0.0
2018-May-26 10:29N 41°21' E 002°11'0 0.0
2018-May-26 09:59N 41°21' E 002°11'0 0.0
2018-May-26 09:29N 41°21' E 002°11'0 0.0
2018-May-26 08:59N 41°21' E 002°11'0 0.0
2018-May-26 08:29N 41°21' E 002°11'0 0.0
2018-May-26 07:59N 41°21' E 002°11'0 0.0
2018-May-26 07:26N 41°21' E 002°11'0 0.0
2018-May-26 06:59N 41°21' E 002°11'0 0.0
2018-May-26 06:29N 41°21' E 002°11'0 0.0
2018-May-26 05:29N 41°21' E 002°11'0 0.0
2018-May-26 04:59N 41°21' E 002°11'0 0.0
2018-May-26 04:29N 41°21' E 002°11'0 0.0
2018-May-26 03:59N 41°21' E 002°11'0 0.0
2018-May-26 03:29N 41°21' E 002°11'0 0.0
2018-May-26 03:01N 41°21' E 002°11'3 5.2
2018-May-26 02:30N 41°19' E 002°10'3 5.3
2018-May-26 02:01N 41°16' E 002°11'815.1
2018-May-26 01:31N 41°09' E 002°10'916.9
2018-May-26 01:00N 41°00' E 002°09'11917.4
2018-May-25 18:07N 39°02' E 001°49'216.4
2018-May-25 17:58N 38°60' E 001°48'817.0
2018-May-25 17:30N 38°57' E 001°38'916.2
2018-May-25 16:59N 38°53' E 001°28'1 1.9
2018-May-25 16:28N 38°54' E 001°27'0 0.0
2018-May-25 15:55N 38°54' E 001°27'0 0.0
2018-May-25 15:28N 38°54' E 001°27'0 0.0
2018-May-25 14:58N 38°54' E 001°27'0 0.0
2018-May-25 14:25N 38°54' E 001°27'0 0.0
2018-May-25 13:58N 38°54' E 001°27'0 0.0
2018-May-25 13:28N 38°54' E 001°27'0 0.0
2018-May-25 12:58N 38°54' E 001°27'0 0.0
2018-May-25 12:25N 38°54' E 001°27'0 0.0
2018-May-25 11:58N 38°54' E 001°27'0 0.0
2018-May-25 11:28N 38°54' E 001°27'0 0.0
2018-May-25 10:58N 38°54' E 001°27'0 0.0
2018-May-25 10:28N 38°54' E 001°27'0 0.0
2018-May-25 09:58N 38°54' E 001°27'0 0.0
2018-May-25 09:28N 38°54' E 001°27'0 0.2
2018-May-25 08:59N 38°54' E 001°27'2 5.1
2018-May-25 08:30N 38°53' E 001°30'11018.0
2018-May-25 02:23N 37°34' W 000°07'821.0
2018-May-25 02:00N 37°29' W 000°15'1020.8
2018-May-25 01:30N 37°23' W 000°26'1120.5
2018-May-25 00:58N 37°16' W 000°37'920.2
2018-May-25 00:30N 37°11' W 000°47'13517.9
2018-May-24 17:00N 36°24' W 003°24'84 4.7 270 / 181013.210.8 21.017.819.0
2018-May-23 22:59N 36°05' W 005°05'919.1
2018-May-23 22:31N 36°02' W 005°16'1019.2
2018-May-23 22:01N 35°58' W 005°27'1018.3
2018-May-23 21:26N 35°55' W 005°39'126 6.6
2018-May-23 02:11N 36°33' W 008°09'620.7
2018-May-23 01:54N 36°33' W 008°16'7915.6
2018-May-22 20:48N 37°25' W 009°31'720.5
2018-May-22 20:28N 37°32' W 009°30'920.2
2018-May-22 20:00N 37°41' W 009°30'1020.3
2018-May-22 19:30N 37°51' W 009°29'1020.2
2018-May-22 19:00N 38°01' W 009°28'1020.4
2018-May-22 18:30N 38°11' W 009°27'1020.5
2018-May-22 18:00N 38°22' W 009°26'1020.2
2018-May-22 17:30N 38°32' W 009°25'918.5
2018-May-22 17:00N 38°40' W 009°19'612.7
2018-May-22 16:30N 38°41' W 009°11'3 6.1
2018-May-22 16:00N 38°43' W 009°08'0 0.0
2018-May-22 15:30N 38°43' W 009°08'0 0.0
2018-May-22 15:00N 38°43' W 009°08'0 0.0
2018-May-22 14:30N 38°43' W 009°08'0 0.0
2018-May-22 14:00N 38°43' W 009°08'0 0.0
2018-May-22 13:30N 38°43' W 009°08'0 0.0
2018-May-22 13:00N 38°43' W 009°08'0 0.0
2018-May-22 12:30N 38°43' W 009°08'0 0.0
2018-May-22 12:00N 38°43' W 009°08'0 0.0
2018-May-22 11:30N 38°43' W 009°08'0 0.0
2018-May-22 10:54N 38°43' W 009°08'0 0.0
2018-May-22 10:30N 38°43' W 009°08'0 0.0
2018-May-22 10:00N 38°43' W 009°08'0 0.0
2018-May-22 09:30N 38°43' W 009°08'0 0.0
2018-May-22 09:00N 38°43' W 009°08'0 0.0
2018-May-22 08:30N 38°43' W 009°08'0 0.0
2018-May-22 08:00N 38°43' W 009°08'0 0.4
2018-May-22 07:30N 38°42' W 009°08'4 8.3
2018-May-22 06:59N 38°41' W 009°13'4 9.3
2018-May-22 06:30N 38°40' W 009°19'611.8
2018-May-22 06:00N 38°36' W 009°24'917.4
2018-May-22 05:30N 38°34' W 009°35'917.4
2018-May-22 05:01N 38°32' W 009°46'917.5
2018-May-22 04:30N 38°30' W 009°57'917.5
2018-May-22 04:00N 38°28' W 010°07'2617.6
2018-May-22 02:32N 38°25' W 010°40'017.5
2018-May-22 02:30N 38°25' W 010°41'917.5
2018-May-22 02:01N 38°25' W 010°52'1017.6
2018-May-22 01:26N 38°24' W 011°05'1 2.1
2018-May-22 01:00N 38°24' W 011°06'15619.5 180 / 201012.4 2.2 16.016.017.0
2018-May-21 17:00N 38°12' W 014°24'42921.2 240 / 141011.0 2.2 19.019.016.0
2018-May-20 20:48N 37°45' W 023°27'620.9
2018-May-20 20:30N 37°45' W 023°35'1121.0
2018-May-20 20:00N 37°44' W 023°48'1121.1
2018-May-20 19:30N 37°43' W 024°01'1020.8
2018-May-20 19:00N 37°43' W 024°14'1121.1
2018-May-20 18:31N 37°42' W 024°28'1121.4
2018-May-20 18:00N 37°41' W 024°41'1121.2
2018-May-20 17:30N 37°40' W 024°55'1020.8
2018-May-20 17:01N 37°40' W 025°08'1121.2
2018-May-20 16:30N 37°40' W 025°21'1020.7
2018-May-20 16:00N 37°41' W 025°34'510.6
2018-May-20 15:30N 37°44' W 025°40'0 0.0
2018-May-20 14:58N 37°44' W 025°40'0 0.0
2018-May-20 14:28N 37°44' W 025°40'0 0.0
2018-May-20 13:58N 37°44' W 025°40'0 0.0
2018-May-20 13:28N 37°44' W 025°40'0 0.0
2018-May-20 12:58N 37°44' W 025°40'0 0.0
2018-May-20 12:28N 37°44' W 025°40'0 0.0
2018-May-20 11:58N 37°44' W 025°40'0 0.0
2018-May-20 11:28N 37°44' W 025°40'0 0.0
2018-May-20 10:58N 37°44' W 025°40'0 0.0
2018-May-20 10:28N 37°44' W 025°40'0 0.0
2018-May-20 09:58N 37°44' W 025°40'0 0.0
2018-May-20 09:30N 37°44' W 025°40'0 0.0
2018-May-20 09:00N 37°44' W 025°40'0 0.0
2018-May-20 08:30N 37°44' W 025°40'0 0.0
2018-May-20 08:00N 37°44' W 025°40'0 0.0
2018-May-20 07:30N 37°44' W 025°40'0 0.0
2018-May-20 07:00N 37°44' W 025°40'0 1.0
2018-May-20 06:30N 37°44' W 025°39'2 4.7
2018-May-20 06:00N 37°42' W 025°41'5 9.7
2018-May-20 05:31N 37°41' W 025°47'5 9.2
2018-May-20 05:00N 37°40' W 025°53'5 9.2
2018-May-20 04:30N 37°39' W 025°58'5 9.8
2018-May-20 04:00N 37°37' W 026°04'5 9.9
2018-May-20 03:30N 37°36' W 026°10'5 9.9
2018-May-20 03:00N 37°35' W 026°16'611.2
2018-May-20 02:30N 37°33' W 026°23'916.9
2018-May-20 02:00N 37°31' W 026°34'816.7
2018-May-20 01:30N 37°29' W 026°44'917.4
2018-May-20 01:00N 37°27' W 026°54'917.3
2018-May-20 00:30N 37°24' W 027°05'917.4
2018-May-20 00:00N 37°22' W 027°15'917.6
2018-May-19 23:29N 37°20' W 027°27'817.4
2018-May-19 23:00N 37°17' W 027°36'917.3
2018-May-19 22:31N 37°15' W 027°47'816.8
2018-May-19 22:00N 37°13' W 027°57'816.7
2018-May-19 21:30N 37°11' W 028°07'816.6
2018-May-19 21:01N 37°09' W 028°17'816.9
2018-May-19 20:30N 37°06' W 028°28'816.9
2018-May-19 20:00N 37°04' W 028°38'917.2
2018-May-19 19:31N 37°02' W 028°48'917.2
2018-May-19 19:00N 36°60' W 028°59'917.1
2018-May-19 18:30N 36°57' W 029°09'18816.3
2018-May-19 07:00N 36°06' W 032°54'47418.2 250 / 121027.010.8 19.816.821.0
2018-May-18 05:00N 34°00' W 042°12'36418.2 180 / 101029.327.0 23.018.224.0
2018-May-17 09:00N 32°24' W 049°12'   360 / 61029.010.8 23.019.924.7

Dump ship's entire track history